GW4504 Weather Reports


time (UTC)temp
C
wind
direction
speed
KPH
gust
KPH
rain 1hr
cm
rain 24hr
cm
rain mn
cm
humidity
%
barometer
mb
20260906191509 38 121 1.6 12.9 0.00 0.00 0.00 39 1008.4
20260906190006 39 176 6.4 14.5 0.00 0.00 0.00 37 1008.5
20260906184509 38 253 6.4 14.5 0.00 0.00 0.00 39 1008.6
20260906183004 38 143 8.0 12.9 0.00 0.00 0.00 40 1008.9
20260906181503 37 215 3.2 8.0 0.00 0.00 0.00 42 1009.2
20260906180002 37 154 3.2 8.0 0.00 0.00 0.00 41 1009.5
20260906174600 38 84 6.4 16.1 0.00 0.00 0.00 40 1009.8
20260906173056 38 15 4.8 11.3 0.00 0.00 0.00 41 1010.1
20260906171559 38 328 3.2 12.9 0.00 0.00 0.00 41 1010.3
20260906170057 38 57 1.6 8.0 0.00 0.00 0.00 43 1010.5
20260906164543 37 62 6.4 11.3 0.00 0.00 0.00 42 1010.6
20260906163039 37 139 1.6 6.4 0.00 0.00 0.00 45 1010.8
20260906161535 36 23 1.6 6.4 0.00 0.00 0.00 47 1010.8
20260906160034 36 49 0.0 8.0 0.00 0.00 0.00 48 1010.7
20260906154526 35 333 1.6 12.9 0.00 0.00 0.00 50 1010.8
20260906153027 34 342 3.2 8.0 0.00 0.00 0.00 53 1010.8
20260906151518 33 271 4.8 12.9 0.00 0.00 0.00 55 1010.7
20260906150013 32 240 1.6 6.4 0.00 0.00 0.00 58 1010.8
20260906144512 31 261 3.2 11.3 0.00 0.00 0.00 60 1010.9
20260906143006 31 239 4.8 12.9 0.00 0.00 0.00 61 1010.9
20260906141506 31 279 1.6 6.4 0.00 0.00 0.00 65 1010.8
20260906134554 28 174 3.2 9.7 0.00 0.00 0.00 72 1010.6
20260906133112 27 171 0.0 4.8 0.00 0.00 0.00 76 1010.5
20260906131550 26 171 0.0 0.0 0.00 0.00 0.00 80 1010.5
20260906130105 24 171 0.0 0.0 0.00 0.00 0.00 82 1010.4
20260906124546 23 171 0.0 0.0 0.00 0.00 0.00 84 1010.2
20260906123044 23 171 0.0 0.0 0.00 0.00 0.00 83 1009.9
20260906121544 23 171 0.0 0.0 0.00 0.00 0.00 84 1009.9
20260906120041 23 171 0.0 0.0 0.00 0.00 0.00 84 1009.7
20260906114547 23 171 0.0 3.2 0.00 0.00 0.00 84 1009.6
20260906113042 23 171 0.0 0.0 0.00 0.00 0.00 85 1009.7
20260906111547 23 171 0.0 0.0 0.00 0.00 0.00 84 1009.6
20260906110037 23 171 0.0 0.0 0.00 0.00 0.00 84 1009.6
20260906104535 23 171 0.0 0.0 0.00 0.00 0.00 82 1009.6
20260906103032 23 171 0.0 0.0 0.00 0.00 0.00 82 1009.5
20260906101531 24 171 0.0 0.0 0.00 0.00 0.00 81 1009.4
20260906100036 24 171 0.0 0.0 0.00 0.00 0.00 81 1009.6
20260906094529 24 171 0.0 0.0 0.00 0.00 0.00 80 1009.4
20260906093029 24 171 0.0 0.0 0.00 0.00 0.00 80 1009.1
20260906091526 24 171 0.0 0.0 0.00 0.00 0.00 79 1009.2
20260906090020 25 171 0.0 0.0 0.00 0.00 0.00 80 1009.1
20260906084517 25 171 1.6 3.2 0.00 0.00 0.00 78 1008.9
20260906083015 25 171 1.6 3.2 0.00 0.00 0.00 77 1008.8
20260906081518 26 171 0.0 0.0 0.00 0.00 0.00 76 1008.6
20260906080014 26 171 0.0 0.0 0.00 0.00 0.00 75 1008.7
20260906074511 25 171 0.0 0.0 0.00 0.00 0.00 75 1008.7
20260906073009 25 169 0.0 4.8 0.00 0.00 0.00 74 1008.7
20260906071509 26 169 0.0 3.2 0.00 0.00 0.00 72 1008.8
20260906070005 26 169 6.4 17.7 0.00 0.00 0.00 72 1008.9
20260906064503 26 137 0.0 0.0 0.00 0.00 0.00 72 1008.6
20260906063002 26 137 0.0 0.0 0.00 0.00 0.00 72 1008.7
20260906061603 27 137 0.0 0.0 0.00 0.00 0.00 72 1008.7
20260906060057 27 137 0.0 0.0 0.00 0.00 0.00 71 1008.7
20260906054603 27 137 0.0 0.0 0.00 0.00 0.00 67 1008.8
20260906053059 27 137 0.0 0.0 0.00 0.00 0.00 67 1008.8
20260906051607 28 137 0.0 0.0 0.00 0.00 0.00 64 1008.8
20260906050047 28 137 0.0 0.0 0.00 0.00 0.00 64 1008.7
20260906044553 28 137 0.0 0.0 0.00 0.00 0.00 65 1008.6
20260906043047 27 137 0.0 0.0 0.00 0.00 0.00 65 1008.5
20260906041546 28 137 0.0 0.0 0.00 0.00 0.00 68 1008.6
20260906040123 28 137 0.0 0.0 0.00 0.00 0.00 63 1008.6
20260906034550 28 137 0.0 0.0 0.00 0.00 0.00 63 1008.6
20260906033101 29 137 0.0 0.0 0.00 0.00 0.00 64 1008.6
20260906031543 30 137 0.0 0.0 0.00 0.00 0.00 59 1008.4
20260906030043 30 137 0.0 0.0 0.00 0.00 0.00 56 1008.3
20260906024544 30 137 0.0 0.0 0.00 0.00 0.00 56 1008.2
20260906023042 31 137 0.0 0.0 0.00 0.00 0.00 58 1008.1
20260906021538 31 137 0.0 0.0 0.00 0.00 0.00 52 1007.8
20260906020035 31 137 0.0 0.0 0.00 0.00 0.00 50 1007.7
20260906014530 32 137 0.0 0.0 0.00 0.00 0.00 50 1007.4
20260906013032 32 137 0.0 0.0 0.00 0.00 0.00 48 1007.3
20260906011528 33 137 0.0 0.0 0.00 0.00 0.00 47 1007.3
20260906010027 35 137 0.0 0.0 0.00 0.00 0.00 45 1007.3
20260906004527 36 137 0.0 0.0 0.00 0.00 0.00 43 1007.2
20260906003027 36 137 0.0 0.0 0.00 0.00 0.00 42 1007.4
20260906001526 36 137 0.0 3.2 0.00 0.00 0.00 42 1007.4
20260906000026 37 137 3.2 8.0 0.00 0.00 0.00 41 1007.2
20260905234525 37 136 4.8 14.5 0.00 0.00 0.00 40 1007.1
20260905233025 37 149 4.8 11.3 0.00 0.00 0.00 39 1007.1
20260905231525 37 182 6.4 12.9 0.00 0.00 0.00 40 1007.0
20260905230024 37 147 3.2 14.5 0.00 0.00 0.00 40 1007.0
20260905224555 38 136 6.4 19.3 0.00 0.00 0.00 40 1007.0
20260905223023 38 181 4.8 14.5 0.00 0.00 0.00 40 1006.9
20260905221521 38 166 6.4 17.7 0.00 0.00 0.00 39 1007.0
20260905220019 38 152 6.4 16.1 0.00 0.00 0.00 40 1007.2
20260905214517 38 134 8.0 14.5 0.00 0.00 0.00 41 1007.2
20260905213016 38 117 6.4 17.7 0.00 0.00 0.00 41 1007.4
20260905211535 38 146 9.7 19.3 0.00 0.00 0.00 41 1007.6
20260905210020 38 122 8.0 27.4 0.00 0.00 0.00 40 1007.8
20260905204510 38 134 8.0 19.3 0.00 0.00 0.00 41 1008.0
20260905203108 38 135 9.7 24.1 0.00 0.00 0.00 41 1008.2
20260905201504 38 134 4.8 16.1 0.00 0.00 0.00 42 1008.6
20260905200105 38 162 3.2 16.1 0.00 0.00 0.00 41 1008.8
20260905194558 37 132 12.9 19.3 0.00 0.00 0.00 41 1009.1
20260905193056 37 132 6.4 17.7 0.00 0.00 0.00 44 1009.2